Date String (YYYY-MM-DD hh:mm:ss) UTC,Instrument flags,absolute air pressure of the measurement (hPa),sample flow rate (lpm),inlet stack bypass flow (lpm),air temperature of the measurement (°C),ambient temperature measured by the external sensor (°C),aerosol sample conditioner tube jacket temperature (°C),OPC LED temperature (°C),internal box temperature (°C),relative humidity of the measurement (%),span deviation,mass concentration of particles derived from Lorenz-Mie calculation of OPC scattering (μg/m³),mass concentration of particles derived from Lorenz-Mie calculation of OPC scattering (μg/m³),mass concentration of particles derived from Lorenz-Mie calculation of OPC scattering (μg/m³)
DateTimeUTC,F1_M11,P_M11,Q1_M11,Q2_M11,T1_M11,T2_M11,T3_M11,T4_M11,T5_M11,U1_M11,ZSPAN_M11,X0_M11,X2_M11,X1_M11
2023-11-15 21:00:00,SystemResetWarning,0830.7,5.00,000.00,027.7,024.3,000.0,036.1,028.6,6.8,0000.0,0008.41,0002.82,0001.93
2023-11-15 21:01:00,SystemResetWarning,0830.7,5.01,000.00,027.7,024.8,000.0,036.1,028.7,6.7,0000.0,0007.94,0002.72,0001.87
2023-11-15 21:02:00,SystemResetWarning,0830.7,4.98,000.00,027.6,025.2,000.0,036.0,028.9,6.5,0000.0,0008.53,0002.62,0001.82
2023-11-15 21:03:00,SystemResetWarning,0830.7,5.00,000.00,027.6,025.6,000.0,036.0,029.0,6.6,0000.0,0009.60,0002.62,0001.77
2023-11-15 21:04:00,SystemResetWarning,0830.6,5.02,000.00,027.7,025.9,000.0,036.0,029.1,6.6,0000.0,0009.77,0002.52,0001.73
2023-11-15 21:05:00,SystemResetWarning,0830.7,4.99,000.00,027.7,026.1,000.0,036.0,029.2,6.7,0000.0,0009.67,0002.43,0001.70
2023-11-15 21:06:00,SystemResetWarning,0830.7,5.00,000.00,027.7,026.3,000.0,036.0,029.2,6.9,0000.0,0009.57,0002.38,0001.69
2023-11-15 21:07:00,SystemResetWarning,0830.6,5.00,000.00,027.8,026.5,000.0,036.0,029.3,6.7,0000.0,0009.33,0002.37,0001.72
2023-11-15 21:08:00,SystemResetWarning,0830.6,5.00,000.00,027.8,026.7,000.0,036.0,029.4,6.7,0000.0,0009.56,0002.36,0001.74
2023-11-15 21:09:00,SystemResetWarning,0830.6,5.00,000.00,027.8,026.8,000.0,036.0,029.4,6.8,0000.0,0009.61,0002.35,0001.73
2023-11-15 21:10:00,SystemResetWarning,0830.6,5.00,000.00,027.9,026.9,000.0,036.0,029.5,6.8,0000.0,0009.64,0002.33,0001.73
2023-11-15 21:11:00,SystemResetWarning,0830.4,5.00,000.00,027.9,027.0,000.0,036.1,029.5,6.7,0000.0,0009.75,0002.34,0001.74
2023-11-15 21:12:00,SystemResetWarning,0830.5,5.00,000.00,027.9,027.1,000.0,036.1,029.5,6.6,0000.0,0009.60,0002.38,0001.74
2023-11-15 21:13:00,SystemResetWarning,0830.4,5.00,000.00,028.0,027.2,000.0,036.1,029.6,6.5,0000.0,0009.33,0002.42,0001.73
2023-11-15 21:14:00,SystemResetWarning,0830.6,5.00,000.00,028.0,027.2,000.0,036.1,029.6,6.6,0000.0,0008.05,0002.42,0001.74
2023-11-15 21:15:00,SystemResetWarning,0830.4,5.00,000.00,028.1,027.3,000.0,036.2,029.6,6.6,0000.0,0007.10,0002.50,0001.75
2023-11-15 21:16:00,SystemResetWarning,0830.4,5.00,000.00,028.1,027.4,000.0,036.2,029.7,6.5,0000.0,0007.36,0002.62,0001.75
2023-11-15 21:17:00,SystemResetWarning,0830.4,5.00,000.00,028.2,027.4,000.0,036.2,029.7,6.4,0000.0,0007.43,0002.66,0001.75
2023-11-15 21:18:00,SystemResetWarning,0830.4,5.00,000.00,028.2,027.5,000.0,036.2,029.8,6.3,0000.0,0007.63,0002.70,0001.74
2023-11-15 21:19:00,SystemResetWarning,0830.4,4.99,000.00,028.3,027.5,000.0,036.3,029.8,6.4,0000.0,0008.20,0002.69,0001.73
2023-11-15 21:20:00,SystemResetWarning,0830.4,4.98,000.00,028.3,026.3,000.0,036.3,029.8,6.4,0000.0,0008.43,0002.68,0001.72
2023-11-15 21:21:00,SystemResetWarning,0830.3,5.00,000.00,028.2,024.2,000.0,036.2,029.3,6.5,0000.0,0008.78,0002.78,0001.74
2023-11-15 21:22:00,SystemResetWarning,0830.3,5.02,000.00,028.0,023.5,000.0,036.2,029.1,6.7,0000.0,0010.74,0002.78,0001.74
2023-11-15 21:23:00,SystemResetWarning,0830.2,5.00,000.00,027.8,023.8,000.0,036.1,028.7,6.6,0000.0,0011.04,0002.76,0001.74
2023-11-15 21:24:00,SystemResetWarning,0830.2,5.00,000.00,027.7,024.3,000.0,036.1,028.6,6.6,0000.0,0010.86,0002.70,0001.73
2023-11-15 21:25:00,SystemResetWarning,0830.2,5.00,000.00,027.7,024.8,000.0,036.0,028.7,6.7,0000.0,0010.69,0002.63,0001.71
2023-11-15 21:26:00,SystemResetWarning,0830.3,5.00,000.00,027.6,025.2,000.0,036.0,028.8,6.8,0000.0,0010.58,0002.56,0001.70
2023-11-15 21:27:00,SystemResetWarning,0830.2,5.00,000.00,027.6,025.5,000.0,036.0,029.0,6.8,0000.0,0010.43,0002.43,0001.70
2023-11-15 21:28:00,SystemResetWarning,0830.2,5.01,000.00,027.6,025.8,000.0,036.0,029.1,6.8,0000.0,0010.82,0002.41,0001.71
2023-11-15 21:29:00,SystemResetWarning,0830.2,4.99,000.00,027.7,026.1,000.0,036.0,029.2,6.8,0000.0,0010.85,0002.39,0001.69
2023-11-15 21:30:00,SystemResetWarning,0830.3,4.99,000.00,027.7,026.3,000.0,036.0,029.2,6.8,0000.0,0010.09,0002.47,0001.69
2023-11-15 21:31:00,SystemResetWarning,0830.3,5.00,000.00,027.8,026.5,000.0,036.0,029.3,6.8,0000.0,0009.72,0002.54,0001.69
2023-11-15 21:32:00,SystemResetWarning,0830.3,5.00,000.00,027.8,026.7,000.0,036.0,029.3,6.8,0000.0,0009.93,0002.55,0001.67
2023-11-15 21:33:00,SystemResetWarning,0830.3,5.00,000.00,027.8,026.8,000.0,036.0,029.4,6.9,0000.0,0008.36,0002.57,0001.68
2023-11-15 21:34:00,SystemResetWarning,0830.3,5.00,000.00,027.9,026.9,000.0,036.0,029.5,6.8,0000.0,0007.89,0002.60,0001.67
2023-11-15 21:35:00,SystemResetWarning,0830.3,5.00,000.00,027.9,027.0,000.0,036.0,029.5,6.7,0000.0,0007.98,0002.60,0001.68
2023-11-15 21:36:00,SystemResetWarning,0830.3,5.01,000.00,028.0,027.1,000.0,036.1,029.6,6.8,0000.0,0008.19,0002.72,0001.68
2023-11-15 21:37:00,SystemResetWarning,0830.3,5.01,000.00,028.0,027.2,000.0,036.1,029.7,6.8,0000.0,0008.23,0002.72,0001.68
2023-11-15 21:38:00,SystemResetWarning,0830.3,5.00,000.00,028.1,027.3,000.0,036.1,029.7,6.9,0000.0,0008.16,0002.75,0001.69
2023-11-15 21:39:00,SystemResetWarning,0830.3,4.99,000.00,028.1,027.4,000.0,036.1,029.7,6.9,0000.0,0007.76,0002.78,0001.69
2023-11-15 21:40:00,SystemResetWarning,0830.3,4.99,000.00,028.2,027.5,000.0,036.2,029.8,6.8,0000.0,0007.55,0002.78,0001.70
2023-11-15 21:41:00,SystemResetWarning,0830.3,4.99,000.00,028.2,026.9,000.0,036.2,029.8,6.8,0000.0,0007.72,0002.78,0001.72
2023-11-15 21:42:00,SystemResetWarning,0830.2,5.01,000.00,028.1,024.8,000.0,036.2,029.4,6.7,0000.0,0007.89,0002.84,0001.74
2023-11-15 21:43:00,SystemResetWarning,0830.2,5.00,000.00,028.0,023.5,000.0,036.1,029.1,6.7,0000.0,0009.21,0002.80,0001.75
2023-11-15 21:44:00,SystemResetWarning,0830.2,5.02,000.00,027.8,023.7,000.0,036.1,028.8,6.8,0000.0,0009.67,0002.80,0001.75
2023-11-15 21:45:00,SystemResetWarning,0830.1,4.99,000.00,027.7,024.1,000.0,036.0,028.5,6.9,0000.0,0009.88,0002.86,0001.76
2023-11-15 21:46:00,SystemResetWarning,0830.1,5.00,000.00,027.6,024.6,000.0,036.0,028.6,6.9,0000.0,0010.46,0002.97,0001.78
2023-11-15 21:47:00,SystemResetWarning,0830.1,5.01,000.00,027.6,025.1,000.0,035.9,028.7,6.9,0000.0,0010.74,0002.96,0001.81
2023-11-15 21:48:00,SystemResetWarning,0830.2,5.00,000.00,027.6,025.4,000.0,035.9,028.9,7.0,0000.0,0011.10,0002.98,0001.81
2023-11-15 21:49:00,SystemResetWarning,0830.1,4.99,000.00,027.6,025.7,000.0,035.9,029.0,7.1,0000.0,0011.26,0003.02,0001.82
2023-11-15 21:50:00,SystemResetWarning,0830.1,5.00,000.00,027.6,026.0,000.0,035.9,029.1,7.1,0000.0,0011.37,0002.98,0001.81
2023-11-15 21:51:00,SystemResetWarning,0830.2,5.00,000.00,027.6,026.2,000.0,035.9,029.1,7.0,0000.0,0011.35,0002.97,0001.82
2023-11-15 21:52:00,SystemResetWarning,0830.1,5.00,000.00,027.7,026.4,000.0,035.9,029.2,6.9,0000.0,0011.41,0003.05,0001.83
2023-11-15 21:53:00,SystemResetWarning,0830.1,5.00,000.00,027.7,026.6,000.0,035.9,029.3,6.9,0000.0,0011.28,0003.05,0001.83
2023-11-15 21:54:00,SystemResetWarning,0830.1,5.00,000.00,027.8,026.7,000.0,035.9,029.3,7.0,0000.0,0010.10,0003.07,0001.84
2023-11-15 21:55:00,SystemResetWarning,0830.1,4.99,000.00,027.8,026.8,000.0,035.9,029.4,6.9,0000.0,0008.92,0003.09,0001.85
2023-11-15 21:56:00,SystemResetWarning,0830.0,5.00,000.00,027.9,026.9,000.0,036.0,029.4,7.0,0000.0,0008.61,0003.05,0001.86
2023-11-15 21:57:00,SystemResetWarning,0830.0,5.00,000.00,027.9,027.0,000.0,036.0,029.5,7.0,0000.0,0008.22,0003.00,0001.87
2023-11-15 21:58:00,SystemResetWarning,0830.0,5.00,000.00,027.9,027.1,000.0,036.0,029.5,6.9,0000.0,0008.02,0003.03,0001.88
2023-11-15 21:59:00,SystemResetWarning,0830.0,5.00,000.00,028.0,027.2,000.0,036.0,029.6,6.9,0000.0,0007.63,0003.02,0001.90
